Regional Weather Roundup
Issued by NWS

Home | Current Version | Previous Version | Text Only | Print | Product List | Glossary Off
Versions: 1 2 3 4 5 6 7 8 9 10 11 12 13 14 15 16 17 18 19 20 21 22 23 24 25 26 27 28 29 30 31 32 33 34 35 36 37 38 39 40 41 42 43 44 45 46 47 48 49 50

000
ASUS43 KMKX 221200
RWRWI

WISCONSIN REGIONAL WEATHER ROUNDUP
NATIONAL WEATHER SERVICE MILWAUKEE/SULLIVAN WI
700 AM CDT FRI MAY 22 2015

NOTE: "FAIR" INDICATES FEW OR NO CLOUDS BELOW 12,000 FEET WITH NO
SIGNIFICANT WEATHER AND/OR OBSTRUCTIONS TO VISIBILITY.

WIZ001-002-006>008-014>016-023>028-221300-
NORTHWEST WISCONSIN

CITY           SKY/WX    TMP DP  RH WIND       PRES   REMARKS
SUPERIOR ARPT  SUNNY     37  35  92 CALM      30.20R
ASHLAND        SUNNY     42  34  73 CALM      30.19R
6HR MIN TEMP:  33; 6HR MAX TEMP:  42;

HAYWARD        SUNNY     37  33  85 N5        30.19R WCI  33
6HR MIN TEMP:  32; 6HR MAX TEMP:  40;

SIREN          SUNNY     37  35  92 CALM      30.19R
CUMBERLAND     SUNNY     41  34  75 CALM      30.18R
RICE LAKE      SUNNY     42  40  91 CALM      30.20R
CHETEK         SUNNY     39  37  93 N5        30.19R
LADYSMITH      SUNNY     39  37  91 CALM      30.20R
EAU CLAIRE     SUNNY     45  40  82 NE5       30.18R
6HR MIN TEMP:  38; 6HR MAX TEMP:  46;

MENOMONIE      SUNNY     44  38  79 NW3       30.18R
NEW RICHMOND   SUNNY     42  38  86 CALM      30.18R
OSCEOLA        SUNNY     38  38 100 CALM      30.21R
$$

WIZ003>005-009-010-017-018-221300-
NORTH CENTRAL WISCONSIN

CITY           SKY/WX    TMP DP  RH WIND       PRES   REMARKS
MANITOWISH WTR SUNNY     32  32  99 CALM      30.18R
ARBOR VITAE    SUNNY     37  33  87 CALM      30.17R
WOODRUFF       SUNNY     37  33  87 CALM      30.17R
RHINELANDER    SUNNY     41  31  67 CALM      30.19R
6HR MIN TEMP:  31; 6HR MAX TEMP:  41;

EAGLE RIVER    SUNNY     33  32  97 CALM      30.18R
LAND O LAKES   SUNNY     33  31  94 CALM      30.19R
PHILLIPS       SUNNY     34  33  96 CALM      30.17R
TOMAHAWK       SUNNY     31  30  95 CALM      30.19R
MEDFORD        SUNNY     37  34  88 CALM      30.18R
MERRILL        SUNNY     33  32  97 CALM      30.20R
$$

WIZ029-030-035-036-043>047-221300-
CENTRAL WISCONSIN

CITY           SKY/WX    TMP DP  RH WIND       PRES   REMARKS
WAUSAU         SUNNY     41  36  82 E6        30.18R
6HR MIN TEMP:  36; 6HR MAX TEMP:  44;

MOSINEE        SUNNY     41  36  81 VRB5      30.20R
MARSHFIELD     SUNNY     46  38  73 E6        30.19R
6HR MIN TEMP:  40; 6HR MAX TEMP:  48;

STEVENS POINT  SUNNY     36  33  91 CALM      30.20R
WAUPACA        SUNNY     41  37  87 CALM      30.20R
WAUTOMA        NOT AVBL
WISC RAPIDS    SUNNY     45  34  65 E5        30.21R
6HR MIN TEMP:  36; 6HR MAX TEMP:  46;

CAMP DOUGLAS   NOT AVBL
$$

WIZ011>013-019>022-031-037>040-048>050-221300-
NORTHEAST WISCONSIN

CITY           SKY/WX    TMP DP  RH WIND       PRES   REMARKS
ANTIGO         SUNNY     35  32  88 CALM      30.19R
SHAWANO        SUNNY     40  38  90 CALM      30.20R
OCONTO         SUNNY     36  36 100 CALM      30.19R
STURGEON BAY   SUNNY     45  28  53 N7        30.22R
6HR MIN TEMP:  36; 6HR MAX TEMP:  45;

GREEN BAY      SUNNY     45  38  76 CALM      30.20R
6HR MIN TEMP:  37; 6HR MAX TEMP:  45;

MANITOWOC      NOT AVBL
APPLETON       SUNNY     43  32  65 N6        30.20R
CLINTONVILLE   SUNNY     37  36  93 CALM      30.20R
OSHKOSH        SUNNY     47  36  65 CALM      30.19R
6HR MIN TEMP:  39; 6HR MAX TEMP:  49;

$$

WIZ032>034-041-042-053>061-221300-
SOUTHWEST WISCONSIN

CITY           SKY/WX    TMP DP  RH WIND       PRES   REMARKS
LA CROSSE      SUNNY     48  42  80 SE5       30.17R
6HR MIN TEMP:  43; 6HR MAX TEMP:  52;

SPARTA         SUNNY     35  34  96 CALM      30.18R
VIROQUA        SUNNY     46  39  76 E7        30.16R
BOSCOBEL       SUNNY     43  42  97 CALM      30.19R
6HR MIN TEMP:  37; 6HR MAX TEMP:  43;

PRAIRIE DU CHI FAIR      42  40  91 CALM      30.17R
PLATTEVILLE    SUNNY     47  41  82 CALM      30.16R
$$

WIZ056-057-062-063-064-067-068-221300-
SOUTH CENTRAL WISCONSIN

CITY           SKY/WX    TMP DP  RH WIND       PRES   REMARKS
REEDSBURG      SUNNY     41  38  90 CALM      30.18R
BARABOO/DELLS  SUNNY     42  36  80 CALM      30.18R
LONE ROCK      NOT AVBL
MINERAL POINT  SUNNY     50  36  57 E6        30.16R
MADISON        SUNNY     46  36  68 N5        30.19R
6HR MIN TEMP:  40; 6HR MAX TEMP:  51;

MIDDLETON      SUNNY     44  37  75 CALM      30.19R
WATERTOWN      SUNNY     43  35  72 CALM      30.17R
MONROE         SUNNY     48  34  57 NE5       30.16R
JANESVILLE     SUNNY     48  34  57 CALM      30.17R
$$

WIZ051-052-058>065-066-070>072-221300-
SOUTHEAST WISCONSIN

CITY           SKY/WX    TMP DP  RH WIND       PRES   REMARKS
MILWAUKEE      SUNNY     48  34  58 NE8       30.19R
6HR MIN TEMP:  43; 6HR MAX TEMP:  48;

WAUKESHA       SUNNY     45  32  61 E3        30.19R
MILWAUKEE/TIMM SUNNY     43  32  65 CALM      30.19R
RACINE         SUNNY     48  37  65 NE8       30.19R
6HR MIN TEMP:  42; 6HR MAX TEMP:  48;

BURLINGTON     SUNNY     40  37  87 CALM      30.17R
KENOSHA        SUNNY     48  38  68 NE5       30.17R
6HR MIN TEMP:  41; 6HR MAX TEMP:  48;

FOND DU LAC    SUNNY     46  32  58 CALM      30.20R
6HR MIN TEMP:  36; 6HR MAX TEMP:  47;

SHEBOYGAN      SUNNY     45  34  65 CALM      30.19R
6HR MIN TEMP:  33; 6HR MAX TEMP:  45;

WEST BEND      SUNNY     37  36  93 CALM      30.18R
JUNEAU         SUNNY     43  32  63 CALM      30.19R
$$

LSZ147-162-221300-
LAKE SUPERIOR

STATION/POSITION TIME  TEMP    WIND        PRES    WAVE
                       AIR SEA DIR/SP/G            HT/PER
                 (UTC) (F)     (DEG/KT/KT) (MB)    (FT/S)
W MID LAKE BUOY  1050   38 36   60/  4/  6   N/A     0
DEVILS ISLAND    1100   40      50/  4/  4   N/A
PORT WING        1100   36     170/  3/  4   N/A
SAXON HARBOR     1100   36     200/  2/  4   N/A
$$

LMZ867-665-643>646-221300-
LAKE MICHIGAN

STATION/POSITION TIME  TEMP    WIND        PRES    WAVE
                       AIR SEA DIR/SP/G            HT/PER
                 (UTC) (F)     (DEG/KT/KT) (MB)    (FT/S)
CHAMBERS ISLAND  1100   46     310/  5/  6   N/A
N MID LAKE BUOY  1050   38 36  320/  6/  8   N/A     1/ 3
NORTHPORT PIER   1100   45     340/  8/ 10   N/A
SISTER BAY       1147   44      10/ 11/ 13   N/A
KEWAUNEE LAKESHO 1100          300/  4/  5   N/A
SHEBOYGAN LAKESH 1100          340/  6/  7   N/A
PORT WASHINGTON  1100   47     310/  2/  5   N/A
ATWATER BUOY     1100   46 44  360/  6/  8   N/A
MILWAUKEE LAKESH 1100   49      10/  5/  7   N/A
S MID LAKE BUOY  1050   41 38  350/  6/  6   N/A
KENOSHA   LAKESH 1100   49      10/ 10/ 11   N/A
$$

TC  - TEMPERATURE IN CELSIUS
VSB - VISIBILITY IN STATUTE MILES
WCI - WIND CHILL INDEX
HX  - HEAT INDEX




USA.gov is the U.S. government's official web portal to all federal, state and local government web resources and services.